timestamp,surface_pressure_avg,surface_temp_avg,battery_voltage,lat,long
2021-02-13 00:09:01+00:00,370.1863,1.7,12.73,47.84626,-54.09684
2021-02-13 00:19:01+00:00,371.3513,1.7,12.65,47.84626,-54.09684
2021-02-13 00:29:01+00:00,372.3079,1.7,12.65,47.84626,-54.09684
2021-02-13 00:39:01+00:00,372.403,1.7,12.65,47.84626,-54.09684
2021-02-13 00:49:01+00:00,374.8729,1.7,12.65,47.84626,-54.09684
2021-02-13 00:59:01+00:00,373.7313,1.7,12.65,47.84626,-54.09684
2021-02-13 01:09:01+00:00,369.4612,1.7,12.65,47.84626,-54.09684
2021-02-13 01:19:01+00:00,367.1179,1.7,12.65,47.84626,-54.09684
2021-02-13 01:29:01+00:00,366.0529,1.7,12.65,47.84626,-54.09684
2021-02-13 01:39:01+00:00,362.4412,1.7,12.65,47.84626,-54.09684
2021-02-13 01:49:01+00:00,357.7363,1.7,12.65,47.84626,-54.09684
2021-02-13 01:59:01+00:00,355.6647,1.7,12.65,47.84626,-54.09684
2021-02-13 02:09:01+00:00,349.6296,1.7,12.65,47.84626,-54.09684
2021-02-13 02:19:01+00:00,343.1729,1.69,12.65,47.84626,-54.09684
2021-02-13 02:29:01+00:00,342.9862,1.7,12.65,47.84626,-54.09684
2021-02-13 02:39:01+00:00,340.1380000000001,1.7,12.65,47.84626,-54.09684
2021-02-13 02:49:01+00:00,331.0013,1.7,12.65,47.84626,-54.09684
2021-02-13 02:59:01+00:00,321.4329,1.69,12.65,47.84626,-54.09684
2021-02-13 03:09:01+00:00,318.128,1.69,12.65,47.84626,-54.09684
2021-02-13 03:19:01+00:00,308.608,1.68,12.65,47.84626,-54.09684
2021-02-13 03:29:01+00:00,295.7664,1.63,12.65,47.84626,-54.09684
2021-02-13 03:39:01+00:00,287.8898,1.63,12.65,47.84626,-54.09684
2021-02-13 03:49:01+00:00,284.0081,1.68,12.65,47.84626,-54.09684
2021-02-13 03:59:01+00:00,273.483,1.6,12.65,47.84626,-54.09684
2021-02-13 04:09:01+00:00,262.2897,1.6,12.65,47.84626,-54.09684
2021-02-13 04:19:01+00:00,256.0213,1.6,12.65,47.84626,-54.09684
2021-02-13 04:29:01+00:00,249.3431,1.65,12.65,47.84626,-54.09684
2021-02-13 04:39:01+00:00,237.1948,1.61,12.65,47.84626,-54.09684
2021-02-13 04:49:01+00:00,228.7997,1.6,12.65,47.84626,-54.09684
2021-02-13 04:59:01+00:00,226.7047,1.63,12.65,47.84626,-54.09684
2021-02-13 05:09:01+00:00,222.3214,1.68,12.65,47.84626,-54.09684
2021-02-13 05:19:01+00:00,213.7648,1.66,12.57,47.84626,-54.09684
2021-02-13 05:29:01+00:00,207.2398,1.62,12.57,47.84626,-54.09684
2021-02-13 05:39:01+00:00,203.3048,1.64,12.57,47.84626,-54.09684
2021-02-13 05:49:01+00:00,198.2647,1.63,12.57,47.84626,-54.09684
2021-02-13 05:59:01+00:00,195.6464,1.65,12.57,47.84626,-54.09684
2021-02-13 06:09:01+00:00,196.6348,1.6,12.57,47.84626,-54.09684
2021-02-13 06:19:01+00:00,196.3631,1.6,12.57,47.84626,-54.09684
2021-02-13 06:29:01+00:00,194.3932,1.6,12.57,47.84626,-54.09684
2021-02-13 06:39:01+00:00,195.0965,1.6,12.57,47.84626,-54.09684
2021-02-13 06:49:01+00:00,198.9414,1.6,12.57,47.84626,-54.09684
2021-02-13 06:59:01+00:00,201.7982,1.6,12.57,47.84626,-54.09684
2021-02-13 07:09:01+00:00,203.4181,1.6,12.57,47.84626,-54.09684
2021-02-13 07:19:01+00:00,210.0081,1.6,12.57,47.84626,-54.09684
2021-02-13 07:29:01+00:00,213.9464,1.6,12.57,47.84626,-54.09684
2021-02-13 07:39:01+00:00,215.5898,1.59,12.57,47.84626,-54.09684
2021-02-13 07:49:01+00:00,220.8515,1.53,12.57,47.84626,-54.09684
2021-02-13 07:59:01+00:00,226.3564,1.5,12.57,47.84626,-54.09684
2021-02-13 08:09:01+00:00,228.8331,1.5,12.57,47.84626,-54.09684
2021-02-13 08:19:01+00:00,230.7814,1.5,12.57,47.84626,-54.09684
2021-02-13 08:29:01+00:00,235.6281,1.5,12.57,47.84626,-54.09684
2021-02-13 08:39:01+00:00,241.0964,1.5,12.57,47.84626,-54.09684
2021-02-13 08:49:01+00:00,248.8681,1.5,12.57,47.84626,-54.09684
2021-02-13 08:59:01+00:00,257.0981,1.5,12.57,47.84626,-54.09684
2021-02-13 09:09:01+00:00,263.1297,1.5,12.57,47.84626,-54.09684
2021-02-13 09:19:01+00:00,271.7614,1.5,12.57,47.84626,-54.09684
2021-02-13 09:29:01+00:00,280.2098,1.5,12.57,47.84626,-54.09684
2021-02-13 09:39:01+00:00,283.3281,1.45,12.57,47.84626,-54.09684
2021-02-13 09:49:01+00:00,281.188,1.4,12.57,47.84626,-54.09684
2021-02-13 09:59:01+00:00,284.833,1.4,12.57,47.84626,-54.09684
2021-02-13 10:09:01+00:00,291.0264,1.4,12.57,47.84626,-54.09684
2021-02-13 10:19:01+00:00,298.0997,1.4,12.57,47.84626,-54.09684
2021-02-13 10:29:01+00:00,306.028,1.4,12.57,47.84626,-54.09684
2021-02-13 10:39:01+00:00,317.4197,1.4,12.57,47.84626,-54.09684
2021-02-13 10:49:01+00:00,325.6346,1.4,12.57,47.84626,-54.09684
2021-02-13 10:59:01+00:00,332.7663,1.3,12.57,47.84626,-54.09684
2021-02-13 11:09:01+00:00,341.3079,1.3,12.57,47.84626,-54.09684
2021-02-13 11:19:01+00:00,348.7096,1.3,12.57,47.84626,-54.09684
2021-02-13 11:29:01+00:00,354.1412,1.3,12.57,47.84626,-54.09684
2021-02-13 11:39:01+00:00,359.82300000000015,1.3,12.57,47.84626,-54.09684
2021-02-13 11:49:01+00:00,364.7346,1.3,12.57,47.84626,-54.09684
2021-02-13 11:59:01+00:00,366.5912,1.36,12.57,47.84626,-54.09684
2021-02-13 12:09:01+00:00,367.5146,1.44,12.57,47.84626,-54.09684
2021-02-13 12:19:01+00:00,372.2613,1.6,13.6,47.84626,-54.09684
2021-02-13 12:29:01+00:00,378.6979,1.7,13.6,47.84626,-54.09684
2021-02-13 12:39:01+00:00,380.7496,1.74,13.6,47.84626,-54.09684
2021-02-13 12:49:01+00:00,384.5596,1.79,13.6,47.84626,-54.09684
2021-02-13 12:59:01+00:00,389.3644,1.8,13.6,47.84626,-54.09684
2021-02-13 13:09:01+00:00,388.6829,1.8,13.6,47.84626,-54.09684
2021-02-13 13:19:01+00:00,385.0696,1.8,13.29,47.84626,-54.09684
2021-02-13 13:29:01+00:00,384.6162,1.8,13.29,47.84626,-54.09684
2021-02-13 13:39:01+00:00,384.5945,1.78,13.29,47.84626,-54.09684
2021-02-13 13:49:01+00:00,380.0746,1.79,13.29,47.84626,-54.09684
2021-02-13 13:59:01+00:00,376.4429,1.79,13.29,47.84626,-54.09684
2021-02-13 14:09:01+00:00,374.723,1.72,13.29,47.84626,-54.09684
2021-02-13 14:19:01+00:00,371.0029,1.7,13.44,47.84626,-54.09684
2021-02-13 14:29:01+00:00,367.8412,1.7,13.44,47.84626,-54.09684
2021-02-13 14:39:01+00:00,363.6545,1.7,13.44,47.84626,-54.09684
2021-02-13 14:49:01+00:00,359.5563,1.7,13.44,47.84626,-54.09684
2021-02-13 14:59:01+00:00,356.1779,1.7,13.44,47.84626,-54.09684
2021-02-13 15:09:01+00:00,353.2963,1.69,13.44,47.84626,-54.09684
2021-02-13 15:19:01+00:00,347.48800000000006,1.66,13.53,47.84626,-54.09684
2021-02-13 15:29:01+00:00,340.0496,1.65,13.53,47.84626,-54.09684
2021-02-13 15:39:01+00:00,332.4313,1.65,13.53,47.84626,-54.09684
2021-02-13 15:49:01+00:00,318.9114,1.64,13.53,47.84626,-54.09684
2021-02-13 15:59:01+00:00,307.2963,1.63,13.53,47.84626,-54.09684
2021-02-13 16:09:01+00:00,298.4613,1.6,13.53,47.84626,-54.09684
2021-02-13 16:19:01+00:00,287.5414,1.57,14.0,47.84626,-54.09684
2021-02-13 16:29:01+00:00,274.9414,1.69,14.0,47.84626,-54.09684
2021-02-13 16:39:01+00:00,264.1647,1.6,14.0,47.84626,-54.09684
2021-02-13 16:49:01+00:00,254.8065,1.68,14.0,47.84626,-54.09684
2021-02-13 16:59:01+00:00,247.9514,1.7,14.0,47.84626,-54.09684
2021-02-13 17:09:01+00:00,241.1031,1.7,14.0,47.84626,-54.09684
2021-02-13 17:19:01+00:00,232.4947,1.7,14.16,47.84626,-54.09684
2021-02-13 17:29:01+00:00,223.9598,1.7,14.16,47.84626,-54.09684
2021-02-13 17:39:01+00:00,214.7064,1.7,14.16,47.84626,-54.09684
2021-02-13 17:49:01+00:00,204.1581,1.7,14.16,47.84626,-54.09684
2021-02-13 17:59:01+00:00,196.3548,1.73,14.16,47.84626,-54.09684
2021-02-13 18:09:01+00:00,192.0314,1.73,14.16,47.84626,-54.09684
2021-02-13 18:19:01+00:00,185.1198,1.75,13.92,47.84626,-54.09684
2021-02-13 18:29:01+00:00,180.8665,1.77,13.92,47.84626,-54.09684
2021-02-13 18:39:01+00:00,182.1631,1.79,13.92,47.84626,-54.09684
2021-02-13 18:49:01+00:00,180.5865,1.8,13.92,47.84626,-54.09684
2021-02-13 18:59:01+00:00,178.5065,1.8,13.92,47.84626,-54.09684
2021-02-13 19:09:01+00:00,180.8498,1.8,13.92,47.84626,-54.09684
2021-02-13 19:19:01+00:00,185.3781,1.8,13.84,47.84626,-54.09684
2021-02-13 19:29:01+00:00,186.4915,1.8,13.84,47.84626,-54.09684
2021-02-13 19:39:01+00:00,186.2115,1.8,13.84,47.84626,-54.09684
2021-02-13 19:49:01+00:00,189.9248,1.8,13.84,47.84626,-54.09684
2021-02-13 19:59:01+00:00,193.8698,1.8,13.84,47.84626,-54.09684
2021-02-13 20:09:01+00:00,195.3249,1.8,13.84,47.84626,-54.09684
2021-02-13 20:19:01+00:00,199.9831,1.8,13.53,47.84626,-54.09684
2021-02-13 20:29:01+00:00,208.4298,1.8,13.53,47.84626,-54.09684
2021-02-13 20:39:01+00:00,214.7281,1.8,13.53,47.84626,-54.09684
2021-02-13 20:49:01+00:00,218.0664,1.8,13.53,47.84626,-54.09684
2021-02-13 20:59:01+00:00,224.6047,1.8,13.53,47.84626,-54.09684
2021-02-13 21:09:01+00:00,230.2865,1.8,13.53,47.84626,-54.09684
2021-02-13 21:19:01+00:00,231.7964,1.8,13.13,47.84626,-54.09684
2021-02-13 21:29:01+00:00,234.2731,1.8,13.13,47.84626,-54.09684
2021-02-13 21:39:01+00:00,239.4164,1.8,13.13,47.84626,-54.09684
2021-02-13 21:49:01+00:00,244.9031,1.79,13.13,47.84626,-54.09684
2021-02-13 21:59:01+00:00,248.4265,1.79,13.13,47.84626,-54.09684
2021-02-13 22:09:01+00:00,252.9281,1.76,13.13,47.84626,-54.09684
2021-02-13 22:19:01+00:00,257.9514,1.74,12.81,47.84626,-54.09684
2021-02-13 22:29:01+00:00,264.858,1.73,12.81,47.84626,-54.09684
2021-02-13 22:39:01+00:00,270.9698,1.74,12.81,47.84626,-54.09684
2021-02-13 22:49:01+00:00,276.6914,1.7,12.81,47.84626,-54.09684
2021-02-13 22:59:01+00:00,283.483,1.7,12.81,47.84626,-54.09684
2021-02-13 23:09:01+00:00,290.8297,1.68,12.81,47.84626,-54.09684
2021-02-13 23:19:01+00:00,298.9297,1.6,12.65,47.84626,-54.09684
2021-02-13 23:29:01+00:00,305.8079,1.6,12.65,47.84626,-54.09684
2021-02-13 23:39:01+00:00,311.153,1.6,12.65,47.84626,-54.09684
2021-02-13 23:49:01+00:00,315.6397,1.6,12.65,47.84626,-54.09684
2021-02-13 23:59:01+00:00,322.3696,1.6,12.65,47.84626,-54.09684
